Content
SEND FEEDBACK

Daily
Averages
Monthly
Summary
United States of America

REDESS, OREGON


Home > North America > United States > Oregon
Elevation: 416 feet     Latitude: 43 35N     Longitude: 119 03W

WEATHER
 
SELECT A DAY
Number of Records: 202,134;   Date Range: 1/1/95 - 7/23/14
 
SHARE

PRINT THIS DATA

[ ← Previous Day ]
WEATHER ALMANAC - JANUARY 23, 2013
[ Next Day → ]
[ °C ]   °F
Weather ElementAverageHighLow
Temperature20.7 °F33.1 °F (10:53 pm)1.9 °F (1:53 am)
Dewpoint15.2 °F28 °F (10:53 pm)-2 °F (2:53 am)
Humidity79.5 %88 % (1:53 am)69 % (1:53 pm)
Barometer30.22 in30.33 in (8:53 am)30.15 in (4:53 pm)
Wind Speed4.4 mph10.4 mph (10:53 am)
Weather ElementAverage
Visibility8.3 mi
Wind DirectionSSE (146.5 °)

Weather ElementTotal
Precipitation---
Heating Degree Days47.5 (Base 65)
Averaged from 23 records on January 23, 2013
WEATHER CONDITIONS BREAKOUT
WIND DIRECTION BREAKOUT
WEATHER BY HOUR - JANUARY 23, 2013
[ °C ]   °F
Local TimeTemperatureDewpointHumidityBarometerVisibilityWind DirectionWind SpeedGust SpeedPrecipitationEventsConditions
1:53 AM1.9 °F-0.9 °F88 %30.32 in10.0 miWSW (250°)4.6 mphClear
2:53 AM1.9 °F-2.0 °F83 %30.30 in10.0 miCalmClear
3:53 AM5.0 °F1.9 °F87 %30.29 in10.0 miWest (260°)8.1 mphClear
4:53 AM7.0 °F3.9 °F87 %30.28 in10.0 miSW (220°)4.6 mphClear
5:53 AM8.1 °F5.0 °F87 %30.28 in9.0 miWest (260°)4.6 mphClear
6:53 AM10.0 °F7.0 °F87 %30.28 in10.0 miSW (220°)3.5 mphClear
7:53 AM12.9 °F10.0 °F88 %30.29 in9.0 miSW (220°)3.5 mphScattered Clouds
8:53 AM16.0 °F10.9 °F81 %30.33 in6.0 miWSW (250°)4.6 mphHaze
9:53 AM21.9 °F14.0 °F72 %30.26 in10.0 miNNE (30°)9.2 mphOvercast
10:53 AM24.1 °F17.1 °F75 %30.23 in10.0 miSSW (200°)10.4 mphOvercast
11:53 AM25.0 °F18.0 °F75 %30.19 in8.0 miSouth (180°)9.2 mphMostly Cloudy
12:53 PM26.1 °F18.0 °F71 %30.19 in8.0 miSE (140°)5.8 mphOvercast
1:53 PM27.0 °F18.0 °F69 %30.17 in8.0 miCalmOvercast
2:53 PM27.0 °F19.0 °F72 %30.17 in7.0 miWSW (250°)5.8 mphOvercast
3:53 PM28.0 °F21.0 °F75 %30.16 in7.0 miWest (260°)4.6 mphMostly Cloudy
4:53 PM28.0 °F21.9 °F78 %30.15 in7.0 miCalmOvercast
5:53 PM28.0 °F23.0 °F81 %30.15 in7.0 miCalmOvercast
6:53 PM28.0 °F21.9 °F78 %30.15 in7.0 miSouth (190°)3.5 mphOvercast
7:53 PM28.0 °F23.0 °F81 %30.15 in8.0 miCalmOvercast
8:53 PM28.0 °F21.9 °F78 %30.17 in9.0 miWest (280°)5.8 mphOvercast
9:53 PM32.0 °F23.0 °F69 %30.17 in6.0 miVariable6.9 mph0.00 inSnowLight Snow
10:53 PM33.1 °F28.0 °F82 %30.17 in10.0 miSSE (160°)5.8 mph0.00 inOvercast
11:53 PM30.0 °F26.1 °F85 %30.18 in5.0 miCalmOvercast
Hourly data recorded from KBNO, located miles away from Redess, Oregon







STORIES FROM OUR PARTNERS